Simultaneous Nadir Overpasses (SNOs) Predictions

Prediction of SNOs between GOES-16 and TERRA Satellite Orbit:

Table of predicted SNOs for the next 14.0 days since TLE Epoch: 8/24/2019
Index Date Time (GOES-16) GOES-16 Lat,Lon TERRA Lat,Lon Distance(km) Time Diff (sec)
1 08/24/2019 03:26:58 -0.02, -75.20 0.12, -74.54 75.65 80
2 08/26/2019 03:14:46 -0.02, -75.21 0.74, -71.58 412.42 80
3 08/26/2019 15:38:41 0.03, -75.23 0.32, -76.74 171.91 80
4 08/28/2019 15:23:49 0.03, -75.23 -0.31, -73.79 165.24 80
5 08/29/2019 03:47:52 -0.03, -75.22 -0.86, -78.97 426.53 80
6 08/31/2019 03:35:41 -0.03, -75.23 -0.17, -76.02 88.77 80
7 09/02/2019 03:20:49 -0.03, -75.26 0.47, -73.06 249.87 80
8 09/02/2019 15:44:44 0.03, -75.28 0.65, -78.22 333.85 80
9 09/04/2019 15:29:52 0.03, -75.31 0.01, -75.26 5.58 80
10 09/06/2019 15:17:40 0.04, -75.34 -0.62, -72.30 345.42 80




NCC Satellite Simultaneous Nadir Overpasses (SNOs) Prediction Service
